Weather History for SAZS - April, 2014

Change the Weather History Date:

Saturday, April 12, 2014

  Actual Average Record
Temperature  
Mean Temperature 39 °F -  
Max Temperature 50 °F 55 °F 140 °F (1998)
Min Temperature 28 °F 34 °F 15 °F (2001)
Degree Days  
Heating Degree Days 26    
Moisture  
Dew Point 28 °F    
Average Humidity 62    
Maximum Humidity 80    
Minimum Humidity 36    
Precipitation  
Precipitation 0.00 in 0.11 in - ()
Sea Level Pressure  
Sea Level Pressure 30.31 in    
Wind  
Wind Speed 5 mph ()    
Max Wind Speed 12 mph    
Max Gust Speed -    
Visibility 6.1 miles    
Events      
Averages and records for this station are not official NWS values.
T = Trace of Precipitation, MM = Missing Value Source: Averaged Metar Reports

Daily Weather History Graph

Daily Weather History Graph

Search for Another Location

Airport or City:

Trip Planner

Search our weather history database for the weather conditions in past years. The results will help you decide how hot, cold, wet, or windy it might be!

Date:

Astronomy

Apr. 12, 2014 Rise Set
Actual Time 8:11 AM ART 7:18 PM ART
Civil Twilight 7:44 AM ART 7:46 PM ART
Nautical Twilight 7:12 AM ART 8:18 PM ART
Astronomical Twilight 6:40 AM ART 8:49 PM ART
Moon 5:52 PM ART (4/12) 5:24 AM ART (4/12)
Length of Visible Light 12h 02m
Length of Day
11h 06m
Waxing Gibbous, 92% of the Moon is Illuminated
Apr 12
Waxing Gibbous
Apr 15
Full
Apr 22
Last Quarter
Apr 29
New
May 7
First Quarter

Hourly Weather History & Observations

Time (ART) Temp. Windchill Dew Point Humidity Pressure Visibility Wind Dir Wind Speed Gust Speed Precip Events Conditions
12:00 AM 36 °F - 27 °F 60%  in 6 mi WNW 9.2 mph - -   Partly Cloudy
12:00 AM 35.6 °F 28.6 °F 26.6 °F 70% 30.15 in 6.2 mi WNW 9.2 mph - N/A   Scattered Clouds
1:00 AM 35.6 °F 27.5 °F 26.6 °F 70% 30.21 in 6.2 mi WNW 11.5 mph - N/A   Scattered Clouds
2:00 AM 33.8 °F 27.7 °F 24.8 °F 70% 30.21 in 6.2 mi WSW 6.9 mph - N/A   Scattered Clouds
3:00 AM 34 °F - 24 °F 57%  in 6 mi SW 5.8 mph - -   Partly Cloudy
3:00 AM 33.8 °F 28.6 °F 24.8 °F 70% 30.24 in 6.2 mi SW 5.8 mph - N/A   Scattered Clouds
4:00 AM 32.0 °F 26.4 °F 23.0 °F 69% 30.27 in 6.2 mi SSE 5.8 mph - N/A   Scattered Clouds
6:00 AM 32 °F - 21 °F 51%  in 6 mi 2.3 mph - -   Partly Cloudy
6:00 AM 32.0 °F - 21.2 °F 64% 30.27 in 6.2 mi Variable 2.3 mph - N/A   Scattered Clouds
7:00 AM 32.0 °F - 21.2 °F 64% 30.30 in 6.2 mi Calm Calm - N/A   Scattered Clouds
8:00 AM 33.8 °F - 21.2 °F 60% 30.30 in 6.2 mi SE 2.3 mph - N/A   Scattered Clouds
9:00 AM 29 °F - 24 °F 74%  in 6 mi SE 6.9 mph - -   Partly Cloudy
9:00 AM 28.4 °F 21.2 °F 23.0 °F 80% 30.33 in 6.2 mi SE 6.9 mph - N/A   Scattered Clouds
10:00 AM 37.4 °F - 30.2 °F 75% 30.36 in 6.2 mi Calm Calm - N/A   Partly Cloudy
11:00 AM 37.4 °F - 30.2 °F 75% 30.36 in 6.2 mi Calm Calm - N/A   Partly Cloudy
12:00 PM 42 °F - 32 °F 57%  in 6 mi NW 3.5 mph - -   Scattered Clouds
12:00 PM 42.8 °F 41.1 °F 35.6 °F 76% 30.36 in 6.2 mi NW 3.5 mph - N/A   Partly Cloudy
1:00 PM 46.4 °F - 32.0 °F 57% 30.33 in 6.2 mi Calm Calm - N/A   Partly Cloudy
2:00 PM 48.2 °F - 33.8 °F 58% 30.33 in 6.2 mi Calm Calm - N/A   Partly Cloudy
3:00 PM 49 °F - 34 °F 43%  in 6 mi NNW 3.5 mph - -   Scattered Clouds
3:00 PM 50.0 °F - 33.8 °F 54% 30.33 in 6.2 mi NNW 3.5 mph - N/A   Partly Cloudy
4:00 PM 50.0 °F - 33.8 °F 54% 30.33 in 6.2 mi West 6.9 mph - N/A   Partly Cloudy
5:00 PM 48.2 °F - 28.4 °F 46% 30.33 in - NW 5.8 mph - N/A   Clear
6:00 PM 46 °F - 28 °F 36%  in 6 mi NW 8.1 mph - -   Scattered Clouds
6:00 PM 46.4 °F 42.4 °F 28.4 °F 50% 30.33 in - NW 8.1 mph - N/A   Clear
7:00 PM 41.0 °F 38.0 °F 24.8 °F 53% 30.33 in - NW 4.6 mph - N/A   Clear
8:00 PM 39.2 °F - 21.2 °F 49% 30.33 in - Calm Calm - N/A   Clear
9:00 PM 38 °F - 31 °F 69%  in 6 mi South 8.1 mph - -  
9:00 PM 39.2 °F 33.6 °F 32.0 °F 75% 30.36 in - South 8.1 mph - N/A   Clear
10:00 PM 37.4 °F 32.8 °F 30.2 °F 75% 30.36 in - SE 5.8 mph - N/A   Clear
11:00 PM 37.4 °F 32.8 °F 28.4 °F 70% 30.36 in - SE 5.8 mph - N/A   Clear